STARLINK-4734 (53790 NORAD) Tracking and Keplerian Element Data

This shows tracking and keplerian element data for the satellite.

Feedback or suggestion? Click here.




ElementValue
Catalog53790
NameSTARLINK-4734
Epoch Orbit1106
Epoch Day325.33334491
Epoch Year2022
RAAN280.5651
Inclination53.2171
Eccentricity0.0001439
Argument of Perigee61.3652
Mean Anonmoly200.2895
Mean Motion15.10613805
Decay Rate-0.01143028
L11 53790U 22111T 22325.33334491 -.01143028 00000+0 -74268-1 0 9993
L22 53790 53.2171 280.5651 0001439 61.3652 200.2895 15.10613805 11066



Live tracking and technical data element details for STARLINK-4734 (NORAD 53790). STARLINK-4734 can be tracked NOW for your location showing map with azimuth and elevation plus other details from your city location.







IsCatalogInMostPopularTable: catalog: 53790, numindb: -1

Insert: records affected: 1


GetName: 53790 STARLINK-4734

Hit Count: inserted at: Thu, 08 Dec 2022 10:21:01 GMT